THORAD AGENA D DEB, 4639

Orbit data source: Space-Track

THORAD AGENA D DEB, 4639 is space debris in SSO originally from a launch on Wed, 08 Apr 1970 UTC launched from the Air Force Western Test Range (AFWTR). Debris objects in space refer to the collection of defunct objects orbiting the Earth. Examples of debris include non-operational satellites, rocket bodies, and fragments generated from explosions, collisions, or faulty payload assembly.

Loading next visibility...
Identifier
4639, 1970-025X
Orbit
SSO
Country
Flag of USUS
Related business
Manufacturer
Unknown
Mission
Spacecraft
Bus & Motor
Unknown
Mass
Unknown
Launch date (UTC)
1970-04-08 (56 years ago)
Launch vehicle
Unknown
Launch site
Air Force Western Test Range (AFWTR)
Object type
Payload
Rocket body
Debris
Shape & HBR
Unknown shape, 0.1 m
Radar Cross Section
Small (<0.1 m²)

Expand to show TLE details & history
Last TLE update: 9 hours ago

TLE from 9 hours ago
0 THORAD AGENA D DEB
1  4639U 70025X   26132.67961822  .00000037  00000-0  15689-3 0  9993
2  4639  99.8814 201.1128 0114391 159.6684   4.9248 13.33118283724548
Epoch: 2026-05-12T16:18Z
TLE epoch observation values (Epoch: 2026-05-12T16:18:39.014Z)
Latitude
15.03786°
Longitude
-91.33182°
Altitude
1,051.45 km
Speed
7.369 km/s
True Right ascension
01h 35m 07s
True Declination
14° 57' 19"
Sunlit
Object was in daylight at epoch
Visualization orbit readout
Latitude
Unknown
Longitude
Unknown
Altitude
Unknown
Speed
Unknown
Apparent Right ascension
Unknown
Apparent Declination
Unknown
Sunlit
N/A
Visualization observer readout
Local Sidereal Time
09:12:55
Azimuth
Unknown
Elevation
Unknown
Doppler factor
Unknown
Orbital elements
Apogee altitude
1,218.27 km
Perigee altitude
1,046.444 km
Semi-major axis
7,510.494 km
Eccentricity
0.01144
Inclination
99.8814°
RAAN
201.1128°
Arg. of periapsis
159.6684°
True anomaly
5.03896°
Mean anomaly
4.9248°
Eccentric anomaly
4.98171°
Mean motion
3.33457 °/min
Orbital period
107.96 mins
BSTAR
0.00015689

Documentation

Showing up to 5 results
|